SCP
-0 -0 0 0 0 0 0 0 0 0 0 0 -0 -0 0 0 0 0 -0 0 -0 -0 -0 -0 -0 -0 -0 -0 -0 -0 -0 -0 -0 -0 -0 -0 -0 -0 -0 -0 -0 -0 -0 -0 -0 -0 -0 -0 -0
-0 -0 -0 0 -0 -0 0 -0 0 0 0 0 -0 0 0 0 0 0 -0 -0 -0 -0 -0 -0 -0 -0 -0 -0 -0 -0 -0 -0 -0 -0 -0 -0 -0 -0 -0 -0 -0 -0 -0 -0 -0 -0 -0 -0 -0
0 0 0 -0 -0 -0 -0 0 0 0 0 0 0 0 -0 0 -0 -0 -0 -0 -0 -0 -0 -0 -0 -0 -0 -0 -0 -0 -0 -0 -0 -0 -0 -0 -0 -0 -0 -0 -0 -0 -0 -0 -0 -0 -0 -0 -0
0 0 0 -0 -0 0 -0 -0 0 0 0 0 0 0 0 -0 0 -0 -0 -0 -0 -0 -0 -0 -0 -0 -0 -0 -0 -0 -0 -0 -0 -0 -0 -0 -0 -0 -0 -0 -0 -0 -0 -0 -0 -0 -0 -0 -0
0 0 0 0 0 0 0 0 -0 0 0 0 0 0 0 0 0 0 -0 -0 -0 -0 -0 -0 -0 -0 -0 -0 -0 -0 -0 -0 -0 -0 -0 -0 -0 -0 -0 -0 -0 -0 -0 -0 -0 -0 -0 -0 -0
0 0 0 0 0 0 0 -0 -0 0 0 0 0 0 0 0 0 0 0 0 0 0 0 -0 -0 -0 -0 -0 -0 -0 -0 -0 -0 -0 -0 -0 -0 -0 -0 -0 -0 -0 -0 -0 -0 -0 -0 -0 -0
0 0 0 0 0 0 0 0 -0 0 0 0 0 0 0 0 0 0 0 0 0 0 0 0 0 0 -0 -0 -0 -0 -0 -0 -0 -0 -0 -0 -0 -0 -0 -0 -0 -0 -0 -0 -0 -0 0 0 0
0 0 0 0 0 0 0 0 0 0 0 0 0 0 0 0 0 0 0 0 0 0 0 0 0 0 0 0 0 0 -0 -0 -0 -0 -0 -0 -0 -0 0 0 -0 -0 0 0 0 0 0 0 0
0 0 0 0 0 0 0 0 0 0 0 0 0 0 0 0 0 0 0 0 0 0 0 0 0 0 0 0 0 0 0 0 0 0 0 0 0 0 0 0 0 0 0 0 0 0 0 0 0
0 0 0 0 0 0 0 0 0 0 0 0 0 0 0 0 0 0 0 0 0 0 0 0 0 0 0 0 0 0 0 0 0 0 0 0 0 0 0 0 0 0 0 0 0 0 0 0 0
0 0 0 0 0 0 0 0 0 0 0 0 0 0 0 0 0 0 0 0 0 0 0 0 0 0 0 0 0 0 0 0 0 0 0 0 0 0 0 0 0 0 0 0 0 0 0 0 0
0 0 0 0 0 0 0 0 0 0 0 0 0 0 0 0 0 0 0 0 0 0 0 0 0 0 0 0 0 0 0 0 0 0 0 0 0 0 0 0 0 0 0 0 0 0 0 0 0
0 0 0 0 0 0 0 0 0 0 0 0 0 0 0 0 0 0 0 0 0 0 0 0 0 0 0 0 0 0 0 0 0 0 0 0 0 0 0 0 0 0 0 0 0 0 0 0 0
0 0 0 0 0 0 0 0 0 0 0 0 0 0 0 0 0 0 0 0 0 0 0 0 0 0 0 0 0 0 0 0 0 0 0 0 0 0 0 0 0 0 0 0 0 0 0 0 0
0 0 0 0 0 0 0 0 0 0 0 0 0 0 0 0 0 0 0 0 0 0 0 0 0 0 0 0 0 0 0 0 0 0 0 0 0 0 0 0 0 0 0 0 0 0 0 0 0
0 0 0 0 0 0 0 0 0 0 0 0 0 0 0 0 0 0 0 0 0 0 0 0 0 0 0 0 0 0 0 0 0 0 0 0 0 0 0 0 0 0 0 0 0 0 0 0 0
0 0 0 0 0 0 0 0 0 0 0 0 0 0 0 0 0 0 0 0 0 0 0 0 0 0 0 0 0 0 0 0 0 0 0 0 0 0 0 0 0 0 0 0 0 0 0 0 0
0 0 0 0 0 0 0 0 0 0 0 0 0 0 0 0 0 0 0 0 0 0 0 0 0 0 0 0 0 0 0 0 0 0 0 0 0 0 0 0 0 0 0 0 0 0 0 0 0
0 0 0 0 0 0 0 0 0 0 0 0 0 0 0 0 0 0 0 0 0 0 0 0 0 0 0 0 0 0 0 0 0 0 0 0 0 0 0 0 0 0 0 0 0 0 0 0 0
0 0 0 0 0 0 0 0 0 0 0 0 0 0 0 0 0 0 0 0 0 0 0 0 0 0 0 0 0 0 0 0 0 0 0 0 0 0 0 0 0 0 0 0 0 0 0 0 0
0 0 0 0 0 0 0 -0 0 0 0 0 0 0 0 0 0 0 0 0 0 0 0 0 0 0 0 0 0 0 0 0 0 0 0 0 0 0 0 0 0 0 0 0 0 0 0 0 0
0 0 0 0 0 0 0 -0 0 0 0 0 0 0 0 0 0 0 0 0 0 0 0 0 0 0 0 0 0 0 0 0 0 0 0 0 0 0 0 0 0 0 0 0 0 0 0 0 0
0 0 0 0 0 0 0 0 0 0 0 0 0 0 0 0 0 0 0 0 0 0 0 0 0 0 0 0 0 0 0 0 0 0 0 0 0 0 0 0 0 0 0 0 0 0 0 0 0
0 0 0 0 0 0 0 0 0 0 0 0 0 0 0 0 0 0 0 0 0 0 0 0 0 0 0 0 0 0 0 0 0 0 0 0 0 0 0 0 0 0 0 0 0 0 0 0 0
0 0 0 0 0 0 0 0 0 0 0 0 0 0 0 0 0 0 0 0 0 0 0 0 0 0 0 0 0 0 0 0 0 0 0 0 0 0 0 0 0 0 0 0 0 0 0 0 0
0 0 0 0 0 0 0 0 0 0 0 0 0 0 0 0 0 0 0 0 0 0 0 0 0 0 0 0 0 0 0 0 0 0 0 0 0 0 0 0 0 0 0 0 0 0 0 0 0
0 0 0 0 0 0 0 0 0 0 0 0 0 0 0 0 0 0 0 0 0 0 0 0 0 0 0 0 0 0 0 0 0 0 0 0 0 0 0 0 0 0 0 0 0 0 0 0 0
0 0 0 0 0 0 0 0 0 0 0 0 0 0 0 0 0 0 0 0 0 0 0 0 0 0 0 0 0 0 0 0 0 0 0 0 0 0 0 0 0 0 0 0 0 0 0 0 0
0 0 0 0 0 0 0 0 0 0 0 0 0 0 0 0 0 0 0 0 0 0 0 0 0 0 0 0 0 0 0 0 0 0 0 0 0 0 0 0 0 0 0 0 0 0 0 0 0
0 0 0 0 0 0 0 0 0 0 0 0 0 0 0 0 0 0 0 0 0 0 0 0 0 0 0 0 0 0 0 0 0 0 0 0 0 0 0 0 0 0 0 0 0 0 0 0 0
Wind_Speed_500mb
6 9 10 6 8 10 2 2 1 2 6 7 24 29 20 12 4 7 26 17 14 23 34 27 27 26 23 21 19 17 16 15 16 15 14 16 20 22 23 21 18 18 17 17 16 15 16 16 19
10 9 5 6 10 8 7 3 9 6 17 42 32 25 19 6 10 21 12 13 18 29 33 27 27 26 23 21 19 16 14 13 14 11 12 14 19 22 23 21 19 18 17 17 16 16 17 16 16
8 4 2 9 8 9 9 6 11 9 15 15 11 22 9 5 16 15 13 19 23 26 31 28 27 26 24 21 18 16 15 11 14 11 9 11 17 21 22 22 19 18 18 18 18 19 18 15 15
3 3 7 9 8 1 15 13 13 12 8 9 31 17 12 3 8 15 23 22 22 21 33 29 27 27 25 22 19 17 14 12 13 13 8 7 12 16 19 20 20 19 19 20 19 19 18 16 15
5 4 8 8 3 3 4 22 20 9 8 12 12 9 10 15 21 25 27 23 22 24 26 29 25 24 23 21 21 20 16 14 15 13 7 6 11 14 16 18 20 21 20 21 21 20 19 17 15
3 5 9 4 5 4 5 18 16 11 12 18 18 15 10 23 24 28 25 22 21 22 25 24 25 26 21 21 21 21 19 17 17 14 10 4 7 11 16 16 17 19 22 23 23 22 20 16 11
10 8 10 9 9 4 7 11 13 11 15 7 26 10 19 28 26 24 26 27 27 22 23 25 26 31 29 26 23 20 20 20 17 14 15 9 3 4 9 15 14 15 18 20 22 22 21 19 15
5 9 5 3 10 8 6 5 13 19 6 17 18 15 14 37 34 30 29 32 34 32 26 25 29 31 29 26 23 21 20 20 19 17 18 13 6 3 4 12 11 15 18 19 21 22 20 18 16
3 9 2 1 9 7 14 6 7 11 16 8 9 20 21 43 40 38 40 37 35 35 32 28 33 32 32 28 23 22 21 21 20 20 19 12 7 10 7 10 12 17 20 21 21 23 24 22 17
8 7 8 3 4 5 7 9 15 10 12 7 17 24 42 42 42 40 39 40 39 38 38 35 36 36 33 31 28 26 24 24 23 22 21 18 14 11 6 5 9 12 18 21 23 22 23 23 22
6 8 7 1 6 7 7 6 11 15 7 20 29 38 40 42 45 43 42 39 39 41 41 38 39 38 33 32 31 30 26 27 27 25 27 22 17 20 13 3 9 9 12 12 14 18 17 17 15
3 1 6 7 6 6 8 6 8 20 17 16 27 35 40 42 45 47 47 45 44 44 44 44 43 46 44 39 40 34 36 34 33 30 30 29 29 29 17 13 11 9 1 5 2 7 11 18 17
3 3 3 5 9 10 10 14 15 19 22 22 27 36 37 39 42 45 46 45 43 40 41 44 44 42 54 51 45 43 39 39 34 32 33 32 34 29 18 16 13 7 8 4 2 7 14 14 19
3 4 13 13 20 13 10 10 10 14 30 31 34 36 37 38 39 43 46 47 45 42 41 41 43 46 45 63 53 46 45 41 40 38 35 33 48 37 27 19 14 14 15 8 4 13 18 14 19
2 7 13 19 17 11 14 13 20 34 30 40 41 38 37 38 40 41 39 39 37 36 35 34 37 43 47 45 48 51 47 43 41 40 37 43 32 21 22 19 17 17 16 15 9 16 13 15 8
4 7 6 7 17 6 17 20 17 22 42 47 44 44 42 43 41 42 41 39 37 35 33 32 33 37 46 45 48 50 47 48 42 36 39 38 27 25 27 22 16 18 15 12 10 9 5 7 10
10 7 9 16 14 9 8 16 9 13 45 49 49 50 48 46 49 47 44 40 37 35 33 33 33 38 45 47 50 52 54 45 34 45 37 30 28 29 22 24 20 17 15 11 4 8 13 15 16
11 9 9 12 8 6 9 25 15 16 37 52 54 54 54 56 58 50 46 42 37 34 31 30 30 37 46 46 51 52 49 48 49 43 32 35 31 30 25 23 19 18 14 11 14 16 16 17 19
9 9 10 7 9 10 17 27 28 41 42 50 60 62 67 66 59 51 47 41 37 35 31 30 32 40 42 46 56 63 50 54 48 41 37 34 33 29 27 23 20 17 18 21 18 15 17 18 17
11 8 19 14 11 14 18 22 20 24 31 66 81 85 78 72 68 61 52 46 40 35 31 29 32 41 51 55 56 45 62 52 48 41 38 33 33 32 30 24 28 27 23 19 15 12 13 20 16
12 13 10 16 11 7 13 22 22 22 50 75 89 75 67 82 83 71 60 49 42 39 33 32 39 48 55 64 70 64 63 58 52 47 46 39 36 36 35 35 32 27 20 16 14 15 14 18 20
10 14 12 10 4 10 4 17 15 8 28 20 63 54 62 71 82 75 65 56 47 41 37 38 44 48 65 65 62 67 58 60 58 56 51 50 45 42 39 32 27 21 17 16 15 17 18 16 20
14 4 5 1 4 6 7 10 4 2 17 35 25 49 58 70 81 84 68 51 46 43 41 44 47 56 67 69 61 63 69 66 64 61 60 56 52 44 36 28 22 18 16 15 16 16 17 21 23
12 10 12 8 4 10 25 20 3 10 14 12 4 21 48 64 73 73 58 50 46 44 47 47 55 62 65 70 76 68 68 68 67 66 64 60 51 42 33 26 20 17 15 15 16 20 22 26 27
8 13 4 7 2 14 8 12 24 20 25 10 16 20 39 58 69 71 65 58 53 52 54 55 59 65 68 70 69 66 66 69 70 70 66 60 50 40 33 25 20 17 16 17 19 20 22 25 26
14 15 11 14 8 9 7 14 12 20 19 22 24 19 38 54 67 68 63 56 55 54 60 61 66 66 67 66 64 67 70 68 68 65 59 51 43 38 32 26 20 17 17 17 17 18 22 27 29
10 14 9 7 4 3 9 14 17 12 15 4 3 22 45 57 62 63 57 53 56 58 64 63 66 66 63 63 67 71 71 72 69 62 53 47 41 36 30 24 18 17 15 15 17 19 21 23 25
12 12 5 3 5 12 11 11 15 12 13 7 10 29 42 54 60 58 55 54 57 60 60 62 65 65 64 66 69 73 76 71 65 59 52 45 39 32 27 22 19 16 15 15 15 15 19 20 25
9 7 5 8 9 9 5 12 13 9 11 17 21 35 46 55 59 62 61 56 58 63 64 66 68 69 68 69 78 80 77 69 62 55 49 41 35 30 26 22 18 15 13 13 11 12 16 19 24
1 12 11 8 11 8 2 18 7 8 12 15 20 37 40 46 53 57 60 62 67 73 72 72 73 72 73 79 84 83 78 71 64 56 48 39 33 30 24 21 18 15 12 9 6 8 14 20 23
Wind_Direction_500mb
199 215 173 161 62 67 329 69 128 82 53 64 86 97 107 70 67 170 151 186 188 174 165 168 165 166 159 153 148 138 131 128 126 131 96 71 53 46 48 56 61 61 53 50 56 64 78 94 100
144 153 158 99 86 77 285 297 124 181 113 112 95 97 50 52 79 130 154 162 161 165 168 169 166 167 165 161 154 151 146 137 131 137 98 74 57 49 46 51 53 51 48 49 51 53 65 84 105
134 114 50 92 112 154 167 212 171 156 133 168 103 82 83 74 129 152 175 154 147 162 173 171 170 168 171 169 165 162 157 156 152 155 101 65 50 51 52 49 52 55 52 48 45 50 60 74 97
147 85 64 87 117 190 160 193 186 135 121 88 124 75 89 108 180 155 171 163 157 168 171 176 173 175 176 179 178 174 171 166 163 164 141 90 56 50 51 55 55 53 51 51 52 60 68 81 107
55 63 57 81 37 120 176 173 163 142 131 112 146 130 99 97 135 143 164 164 172 161 173 183 178 174 175 184 186 182 182 175 173 178 162 93 57 48 45 43 46 53 54 53 54 59 70 87 112
106 68 60 129 187 203 237 150 139 147 128 121 108 108 139 139 145 152 159 177 183 172 167 177 181 184 186 190 183 186 187 185 182 183 174 129 61 34 30 30 39 47 53 56 56 56 59 69 86
111 83 173 147 177 176 213 148 119 144 148 107 142 104 153 162 160 161 170 178 178 179 180 191 200 193 195 196 191 191 191 189 185 186 179 177 153 42 27 19 25 49 54 54 55 57 59 61 64
94 94 106 143 185 206 216 119 117 160 162 127 158 166 179 175 169 172 176 173 181 185 188 204 205 202 201 200 197 193 195 196 192 187 188 194 182 120 78 12 37 59 57 58 61 58 57 61 66
59 63 131 192 172 201 176 143 134 128 142 134 145 159 163 168 172 177 179 183 195 199 196 183 196 202 203 200 206 203 203 203 198 195 199 203 169 151 135 80 53 59 59 55 60 57 52 48 48
78 94 201 196 162 201 180 185 164 157 150 118 137 148 160 173 177 189 191 194 196 197 193 183 192 198 207 202 206 205 214 211 210 209 206 195 180 210 164 68 84 69 55 43 50 50 48 37 35
127 160 207 201 121 131 169 159 183 154 215 200 194 171 172 180 185 196 202 206 204 203 203 191 193 197 196 207 205 199 204 210 210 214 207 205 209 200 172 181 135 102 56 23 18 37 42 28 14
87 317 217 185 177 168 190 207 214 211 225 225 219 195 183 187 195 202 209 208 204 205 211 212 209 210 203 198 204 210 212 208 206 207 216 214 218 191 184 186 174 155 267 313 331 20 22 356 344
146 349 262 263 241 239 214 227 228 231 225 208 185 192 195 194 198 203 211 216 217 217 219 218 218 211 208 208 207 209 216 212 213 210 210 213 208 192 204 190 198 235 282 179 282 327 319 320 341
170 282 278 271 251 238 208 244 217 235 216 202 199 201 207 210 213 215 217 221 224 225 222 217 217 218 213 207 209 211 215 215 218 205 212 218 225 213 199 190 208 228 208 209 246 307 299 330 340
312 319 318 243 236 218 203 289 235 239 215 207 209 213 217 224 222 224 218 211 211 213 214 213 213 215 214 205 203 213 216 214 218 213 207 186 193 196 214 207 207 204 209 242 268 300 320 335 12
4 53 341 278 149 225 154 269 261 237 212 210 213 216 223 228 229 221 217 216 216 219 222 222 220 214 211 202 204 207 212 212 215 222 204 200 205 224 212 208 211 226 223 230 265 286 320 93 91
360 246 225 309 185 139 164 264 273 248 208 215 217 221 224 221 221 220 219 222 223 224 226 227 222 215 208 200 206 210 212 209 196 186 192 209 207 208 228 229 215 202 221 212 224 141 120 111 105
200 225 244 240 205 134 226 263 271 224 213 224 227 228 225 226 227 222 222 226 228 228 227 228 221 209 203 198 205 207 210 209 205 207 202 204 212 206 208 198 203 190 198 183 144 124 114 108 110
158 199 244 246 223 206 230 237 249 244 230 241 240 235 229 228 224 221 224 228 230 228 225 221 216 205 206 200 200 195 185 181 179 182 188 198 194 190 182 177 175 168 167 147 133 108 97 97 110
237 245 265 295 253 181 269 256 249 237 233 237 240 239 234 224 218 216 219 224 226 227 225 217 206 194 190 188 178 203 178 176 176 177 177 174 173 170 170 177 162 152 151 142 129 111 94 95 98
231 216 244 230 314 257 300 272 236 240 239 247 249 245 238 230 218 213 214 219 222 221 217 206 194 192 198 206 211 178 179 172 172 172 168 167 169 163 158 156 154 150 142 131 103 75 56 50 53
236 211 222 263 338 266 26 295 298 250 247 238 248 240 232 229 224 216 212 214 216 215 206 198 192 193 196 189 195 183 197 181 174 172 168 163 162 159 156 154 148 142 124 106 90 72 56 47 40
225 152 190 218 238 352 195 279 336 93 266 257 248 244 231 228 223 212 209 211 213 212 202 192 195 196 189 186 192 202 182 174 170 167 163 160 159 159 154 148 138 125 109 87 72 62 50 43 40
140 77 44 52 61 267 212 200 165 183 239 296 287 254 225 212 212 207 204 206 209 202 195 196 198 197 199 198 191 188 190 178 172 168 166 163 161 157 152 145 136 123 105 90 69 54 46 41 33
108 101 300 327 326 243 333 222 252 284 263 247 282 243 213 210 205 197 199 199 203 199 194 193 200 199 199 191 189 187 186 179 175 171 170 166 163 157 151 146 138 128 109 86 69 56 45 38 29
192 158 162 220 216 274 312 237 251 232 271 282 289 257 199 198 199 199 201 203 202 201 196 199 197 196 194 191 190 188 185 182 177 172 170 166 163 158 152 150 140 120 101 87 71 49 37 33 25
195 208 181 89 52 22 231 287 297 301 268 262 216 190 191 194 198 201 203 208 203 200 198 198 200 195 194 195 190 187 187 180 174 171 170 168 164 161 156 149 139 123 109 91 68 51 39 31 20
163 160 76 23 218 248 280 259 236 284 280 222 187 201 194 199 199 204 208 208 207 203 201 201 202 202 200 195 191 188 182 179 178 176 173 171 168 163 157 152 144 130 114 92 75 54 39 24 14
142 180 160 139 162 202 285 252 208 219 292 234 212 208 204 205 205 203 203 208 210 206 207 207 205 203 200 194 189 187 183 182 181 177 175 173 168 163 159 154 149 137 121 102 80 51 33 16 10
186 180 155 153 223 240 208 260 162 210 259 241 212 201 209 218 213 213 212 208 207 207 207 209 207 205 201 195 191 187 186 184 182 179 177 173 171 165 165 162 154 146 132 117 90 45 24 9 5
Wind_Speed_850mb
6 9 10 6 8 10 2 2 1 2 6 7 24 29 20 12 4 7 26 17 14 23 34 27 27 26 23 21 19 17 16 15 16 15 14 16 20 22 23 21 18 18 17 17 16 15 16 16 19
10 9 5 6 10 8 7 3 9 6 17 42 32 25 19 6 10 21 12 13 18 29 33 27 27 26 23 21 19 16 14 13 14 11 12 14 19 22 23 21 19 18 17 17 16 16 17 16 16
8 4 2 9 8 9 9 6 11 9 15 15 11 22 9 5 16 15 13 19 23 26 31 28 27 26 24 21 18 16 15 11 14 11 9 11 17 21 22 22 19 18 18 18 18 19 18 15 15
3 3 7 9 8 1 15 13 13 12 8 9 31 17 12 3 8 15 23 22 22 21 33 29 27 27 25 22 19 17 14 12 13 13 8 7 12 16 19 20 20 19 19 20 19 19 18 16 15
5 4 8 8 3 3 4 22 20 9 8 12 12 9 10 15 21 25 27 23 22 24 26 29 25 24 23 21 21 20 16 14 15 13 7 6 11 14 16 18 20 21 20 21 21 20 19 17 15
3 5 9 4 5 4 5 18 16 11 12 18 18 15 10 23 24 28 25 22 21 22 25 24 25 26 21 21 21 21 19 17 17 14 10 4 7 11 16 16 17 19 22 23 23 22 20 16 11
10 8 10 9 9 4 7 11 13 11 15 7 26 10 19 28 26 24 26 27 27 22 23 25 26 31 29 26 23 20 20 20 17 14 15 9 3 4 9 15 14 15 18 20 22 22 21 19 15
5 9 5 3 10 8 6 5 13 19 6 17 18 15 14 37 34 30 29 32 34 32 26 25 29 31 29 26 23 21 20 20 19 17 18 13 6 3 4 12 11 15 18 19 21 22 20 18 16
3 9 2 1 9 7 14 6 7 11 16 8 9 20 21 43 40 38 40 37 35 35 32 28 33 32 32 28 23 22 21 21 20 20 19 12 7 10 7 10 12 17 20 21 21 23 24 22 17
8 7 8 3 4 5 7 9 15 10 12 7 17 24 42 42 42 40 39 40 39 38 38 35 36 36 33 31 28 26 24 24 23 22 21 18 14 11 6 5 9 12 18 21 23 22 23 23 22
6 8 7 1 6 7 7 6 11 15 7 20 29 38 40 42 45 43 42 39 39 41 41 38 39 38 33 32 31 30 26 27 27 25 27 22 17 20 13 3 9 9 12 12 14 18 17 17 15
3 1 6 7 6 6 8 6 8 20 17 16 27 35 40 42 45 47 47 45 44 44 44 44 43 46 44 39 40 34 36 34 33 30 30 29 29 29 17 13 11 9 1 5 2 7 11 18 17
3 3 3 5 9 10 10 14 15 19 22 22 27 36 37 39 42 45 46 45 43 40 41 44 44 42 54 51 45 43 39 39 34 32 33 32 34 29 18 16 13 7 8 4 2 7 14 14 19
3 4 13 13 20 13 10 10 10 14 30 31 34 36 37 38 39 43 46 47 45 42 41 41 43 46 45 63 53 46 45 41 40 38 35 33 48 37 27 19 14 14 15 8 4 13 18 14 19
2 7 13 19 17 11 14 13 20 34 30 40 41 38 37 38 40 41 39 39 37 36 35 34 37 43 47 45 48 51 47 43 41 40 37 43 32 21 22 19 17 17 16 15 9 16 13 15 8
4 7 6 7 17 6 17 20 17 22 42 47 44 44 42 43 41 42 41 39 37 35 33 32 33 37 46 45 48 50 47 48 42 36 39 38 27 25 27 22 16 18 15 12 10 9 5 7 10
10 7 9 16 14 9 8 16 9 13 45 49 49 50 48 46 49 47 44 40 37 35 33 33 33 38 45 47 50 52 54 45 34 45 37 30 28 29 22 24 20 17 15 11 4 8 13 15 16
11 9 9 12 8 6 9 25 15 16 37 52 54 54 54 56 58 50 46 42 37 34 31 30 30 37 46 46 51 52 49 48 49 43 32 35 31 30 25 23 19 18 14 11 14 16 16 17 19
9 9 10 7 9 10 17 27 28 41 42 50 60 62 67 66 59 51 47 41 37 35 31 30 32 40 42 46 56 63 50 54 48 41 37 34 33 29 27 23 20 17 18 21 18 15 17 18 17
11 8 19 14 11 14 18 22 20 24 31 66 81 85 78 72 68 61 52 46 40 35 31 29 32 41 51 55 56 45 62 52 48 41 38 33 33 32 30 24 28 27 23 19 15 12 13 20 16
12 13 10 16 11 7 13 22 22 22 50 75 89 75 67 82 83 71 60 49 42 39 33 32 39 48 55 64 70 64 63 58 52 47 46 39 36 36 35 35 32 27 20 16 14 15 14 18 20
10 14 12 10 4 10 4 17 15 8 28 20 63 54 62 71 82 75 65 56 47 41 37 38 44 48 65 65 62 67 58 60 58 56 51 50 45 42 39 32 27 21 17 16 15 17 18 16 20
14 4 5 1 4 6 7 10 4 2 17 35 25 49 58 70 81 84 68 51 46 43 41 44 47 56 67 69 61 63 69 66 64 61 60 56 52 44 36 28 22 18 16 15 16 16 17 21 23
12 10 12 8 4 10 25 20 3 10 14 12 4 21 48 64 73 73 58 50 46 44 47 47 55 62 65 70 76 68 68 68 67 66 64 60 51 42 33 26 20 17 15 15 16 20 22 26 27
8 13 4 7 2 14 8 12 24 20 25 10 16 20 39 58 69 71 65 58 53 52 54 55 59 65 68 70 69 66 66 69 70 70 66 60 50 40 33 25 20 17 16 17 19 20 22 25 26
14 15 11 14 8 9 7 14 12 20 19 22 24 19 38 54 67 68 63 56 55 54 60 61 66 66 67 66 64 67 70 68 68 65 59 51 43 38 32 26 20 17 17 17 17 18 22 27 29
10 14 9 7 4 3 9 14 17 12 15 4 3 22 45 57 62 63 57 53 56 58 64 63 66 66 63 63 67 71 71 72 69 62 53 47 41 36 30 24 18 17 15 15 17 19 21 23 25
12 12 5 3 5 12 11 11 15 12 13 7 10 29 42 54 60 58 55 54 57 60 60 62 65 65 64 66 69 73 76 71 65 59 52 45 39 32 27 22 19 16 15 15 15 15 19 20 25
9 7 5 8 9 9 5 12 13 9 11 17 21 35 46 55 59 62 61 56 58 63 64 66 68 69 68 69 78 80 77 69 62 55 49 41 35 30 26 22 18 15 13 13 11 12 16 19 24
1 12 11 8 11 8 2 18 7 8 12 15 20 37 40 46 53 57 60 62 67 73 72 72 73 72 73 79 84 83 78 71 64 56 48 39 33 30 24 21 18 15 12 9 6 8 14 20 23
Wind_Direction_850mb
199 215 173 161 62 67 329 69 128 82 53 64 86 97 107 70 67 170 151 186 188 174 165 168 165 166 159 153 148 138 131 128 126 131 96 71 53 46 48 56 61 61 53 50 56 64 78 94 100
144 153 158 99 86 77 285 297 124 181 113 112 95 97 50 52 79 130 154 162 161 165 168 169 166 167 165 161 154 151 146 137 131 137 98 74 57 49 46 51 53 51 48 49 51 53 65 84 105
134 114 50 92 112 154 167 212 171 156 133 168 103 82 83 74 129 152 175 154 147 162 173 171 170 168 171 169 165 162 157 156 152 155 101 65 50 51 52 49 52 55 52 48 45 50 60 74 97
147 85 64 87 117 190 160 193 186 135 121 88 124 75 89 108 180 155 171 163 157 168 171 176 173 175 176 179 178 174 171 166 163 164 141 90 56 50 51 55 55 53 51 51 52 60 68 81 107
55 63 57 81 37 120 176 173 163 142 131 112 146 130 99 97 135 143 164 164 172 161 173 183 178 174 175 184 186 182 182 175 173 178 162 93 57 48 45 43 46 53 54 53 54 59 70 87 112
106 68 60 129 187 203 237 150 139 147 128 121 108 108 139 139 145 152 159 177 183 172 167 177 181 184 186 190 183 186 187 185 182 183 174 129 61 34 30 30 39 47 53 56 56 56 59 69 86
111 83 173 147 177 176 213 148 119 144 148 107 142 104 153 162 160 161 170 178 178 179 180 191 200 193 195 196 191 191 191 189 185 186 179 177 153 42 27 19 25 49 54 54 55 57 59 61 64
94 94 106 143 185 206 216 119 117 160 162 127 158 166 179 175 169 172 176 173 181 185 188 204 205 202 201 200 197 193 195 196 192 187 188 194 182 120 78 12 37 59 57 58 61 58 57 61 66
59 63 131 192 172 201 176 143 134 128 142 134 145 159 163 168 172 177 179 183 195 199 196 183 196 202 203 200 206 203 203 203 198 195 199 203 169 151 135 80 53 59 59 55 60 57 52 48 48
78 94 201 196 162 201 180 185 164 157 150 118 137 148 160 173 177 189 191 194 196 197 193 183 192 198 207 202 206 205 214 211 210 209 206 195 180 210 164 68 84 69 55 43 50 50 48 37 35
127 160 207 201 121 131 169 159 183 154 215 200 194 171 172 180 185 196 202 206 204 203 203 191 193 197 196 207 205 199 204 210 210 214 207 205 209 200 172 181 135 102 56 23 18 37 42 28 14
87 317 217 185 177 168 190 207 214 211 225 225 219 195 183 187 195 202 209 208 204 205 211 212 209 210 203 198 204 210 212 208 206 207 216 214 218 191 184 186 174 155 267 313 331 20 22 356 344
146 349 262 263 241 239 214 227 228 231 225 208 185 192 195 194 198 203 211 216 217 217 219 218 218 211 208 208 207 209 216 212 213 210 210 213 208 192 204 190 198 235 282 179 282 327 319 320 341
170 282 278 271 251 238 208 244 217 235 216 202 199 201 207 210 213 215 217 221 224 225 222 217 217 218 213 207 209 211 215 215 218 205 212 218 225 213 199 190 208 228 208 209 246 307 299 330 340
312 319 318 243 236 218 203 289 235 239 215 207 209 213 217 224 222 224 218 211 211 213 214 213 213 215 214 205 203 213 216 214 218 213 207 186 193 196 214 207 207 204 209 242 268 300 320 335 12
4 53 341 278 149 225 154 269 261 237 212 210 213 216 223 228 229 221 217 216 216 219 222 222 220 214 211 202 204 207 212 212 215 222 204 200 205 224 212 208 211 226 223 230 265 286 320 93 91
360 246 225 309 185 139 164 264 273 248 208 215 217 221 224 221 221 220 219 222 223 224 226 227 222 215 208 200 206 210 212 209 196 186 192 209 207 208 228 229 215 202 221 212 224 141 120 111 105
200 225 244 240 205 134 226 263 271 224 213 224 227 228 225 226 227 222 222 226 228 228 227 228 221 209 203 198 205 207 210 209 205 207 202 204 212 206 208 198 203 190 198 183 144 124 114 108 110
158 199 244 246 223 206 230 237 249 244 230 241 240 235 229 228 224 221 224 228 230 228 225 221 216 205 206 200 200 195 185 181 179 182 188 198 194 190 182 177 175 168 167 147 133 108 97 97 110
237 245 265 295 253 181 269 256 249 237 233 237 240 239 234 224 218 216 219 224 226 227 225 217 206 194 190 188 178 203 178 176 176 177 177 174 173 170 170 177 162 152 151 142 129 111 94 95 98
231 216 244 230 314 257 300 272 236 240 239 247 249 245 238 230 218 213 214 219 222 221 217 206 194 192 198 206 211 178 179 172 172 172 168 167 169 163 158 156 154 150 142 131 103 75 56 50 53
236 211 222 263 338 266 26 295 298 250 247 238 248 240 232 229 224 216 212 214 216 215 206 198 192 193 196 189 195 183 197 181 174 172 168 163 162 159 156 154 148 142 124 106 90 72 56 47 40
225 152 190 218 238 352 195 279 336 93 266 257 248 244 231 228 223 212 209 211 213 212 202 192 195 196 189 186 192 202 182 174 170 167 163 160 159 159 154 148 138 125 109 87 72 62 50 43 40
140 77 44 52 61 267 212 200 165 183 239 296 287 254 225 212 212 207 204 206 209 202 195 196 198 197 199 198 191 188 190 178 172 168 166 163 161 157 152 145 136 123 105 90 69 54 46 41 33
108 101 300 327 326 243 333 222 252 284 263 247 282 243 213 210 205 197 199 199 203 199 194 193 200 199 199 191 189 187 186 179 175 171 170 166 163 157 151 146 138 128 109 86 69 56 45 38 29
192 158 162 220 216 274 312 237 251 232 271 282 289 257 199 198 199 199 201 203 202 201 196 199 197 196 194 191 190 188 185 182 177 172 170 166 163 158 152 150 140 120 101 87 71 49 37 33 25
195 208 181 89 52 22 231 287 297 301 268 262 216 190 191 194 198 201 203 208 203 200 198 198 200 195 194 195 190 187 187 180 174 171 170 168 164 161 156 149 139 123 109 91 68 51 39 31 20
163 160 76 23 218 248 280 259 236 284 280 222 187 201 194 199 199 204 208 208 207 203 201 201 202 202 200 195 191 188 182 179 178 176 173 171 168 163 157 152 144 130 114 92 75 54 39 24 14
142 180 160 139 162 202 285 252 208 219 292 234 212 208 204 205 205 203 203 208 210 206 207 207 205 203 200 194 189 187 183 182 181 177 175 173 168 163 159 154 149 137 121 102 80 51 33 16 10
186 180 155 153 223 240 208 260 162 210 259 241 212 201 209 218 213 213 212 208 207 207 207 209 207 205 201 195 191 187 186 184 182 179 177 173 171 165 165 162 154 146 132 117 90 45 24 9 5